AFR31C LFBO-LFLL

Flight info

Callsign AFR31C
Flight time 0h 39m
Altitude 26000
Route MEN DCT NINUN G53 MEZIN
Aircraft A320/M-SDE3FGHIRWY/LB1

Departure

Time 2026-05-04 16:36
Airport Toulouse-Blagnac Airport (LFBO)

Arrival

Time 2026-05-04 17:16
Airport Lyon Saint-Exupéry Airport (LFLL)
Time Latitude Longitude Altitude Speed Heading
2026-05-04 16:03 43.62874 1.37420 494 ft 0 kts 51°
2026-05-04 16:24 43.62842 1.37368 495 ft 4 kts 58°
2026-05-04 16:25 43.62841 1.37315 486 ft 0 kts 142°
2026-05-04 16:28 43.62819 1.37339 495 ft 4 kts 142°
2026-05-04 16:29 43.62606 1.37423 490 ft 9 kts 224°
2026-05-04 16:30 43.62493 1.37370 494 ft 5 kts 142°
2026-05-04 16:31 43.62373 1.37490 489 ft 11 kts 143°
2026-05-04 16:31 43.62202 1.37669 490 ft 12 kts 142°
2026-05-04 16:32 43.61885 1.37995 488 ft 19 kts 143°
2026-05-04 16:33 43.61697 1.38175 492 ft 15 kts 171°
2026-05-04 16:33 43.61639 1.38131 493 ft 0 kts 228°
2026-05-04 16:35 43.61638 1.38130 493 ft 1 kts 228°
2026-05-04 16:35 43.62068 1.37494 489 ft 103 kts 324°
2026-05-04 16:36 43.62785 1.36745 677 ft 143 kts 322°
2026-05-04 16:36 43.64447 1.35053 2146 ft 150 kts 324°
2026-05-04 16:37 43.66276 1.33116 3081 ft 188 kts 323°
2026-05-04 16:37 43.67402 1.32000 3482 ft 209 kts 324°
2026-05-04 16:37 43.69994 1.29534 4792 ft 237 kts 330°
2026-05-04 16:38 43.73285 1.29521 6467 ft 258 kts 29°
2026-05-04 16:39 43.76115 1.36202 8057 ft 291 kts 67°
2026-05-04 16:39 43.77735 1.41438 9926 ft 302 kts 67°
2026-05-04 16:40 43.79516 1.47129 10773 ft 346 kts 67°
2026-05-04 16:40 43.81502 1.53469 12085 ft 365 kts 67°
2026-05-04 16:41 43.83122 1.60196 13717 ft 373 kts 75°
2026-05-04 16:41 43.85392 1.70689 15830 ft 386 kts 75°
2026-05-04 16:42 43.87725 1.81495 17869 ft 398 kts 76°
2026-05-04 16:43 43.89324 1.88927 19064 ft 406 kts 76°
2026-05-04 16:43 43.90946 1.96524 20098 ft 416 kts 76°
2026-05-04 16:43 43.91931 2.00333 20630 ft 424 kts 68°
2026-05-04 16:44 43.99234 2.13668 22696 ft 445 kts 51°
2026-05-04 16:45 44.03266 2.20282 23721 ft 451 kts 51°
2026-05-04 16:46 44.09389 2.30355 25010 ft 459 kts 51°
2026-05-04 16:46 44.13558 2.37215 25713 ft 468 kts 51°
2026-05-04 16:47 44.17782 2.44182 25930 ft 474 kts 51°
2026-05-04 16:47 44.22030 2.51210 25936 ft 473 kts 51°
2026-05-04 16:48 44.28359 2.61721 25937 ft 471 kts 51°
2026-05-04 16:48 44.30466 2.65230 25944 ft 471 kts 51°
2026-05-04 16:49 44.34693 2.72268 25944 ft 475 kts 51°
2026-05-04 16:49 44.38912 2.79309 25948 ft 476 kts 52°
2026-05-04 16:50 44.43149 2.86406 25955 ft 475 kts 52°
2026-05-04 16:50 44.47365 2.93493 25960 ft 473 kts 52°
2026-05-04 16:51 44.51576 3.00576 25954 ft 473 kts 52°
2026-05-04 16:51 44.53678 3.04115 25951 ft 472 kts 52°
2026-05-04 16:51 44.57869 3.11214 25927 ft 473 kts 52°
2026-05-04 16:52 44.61786 3.18593 25928 ft 470 kts 63°
2026-05-04 16:52 44.63385 3.22588 25934 ft 470 kts 63°
2026-05-04 16:53 44.66594 3.30577 25930 ft 470 kts 63°
2026-05-04 16:53 44.71405 3.42579 25939 ft 470 kts 63°
2026-05-04 16:54 44.73003 3.46587 25937 ft 470 kts 63°
2026-05-04 16:55 44.79392 3.62644 25940 ft 470 kts 63°
2026-05-04 16:55 44.82571 3.70687 25936 ft 470 kts 63°
2026-05-04 16:56 44.85744 3.78734 25935 ft 470 kts 63°
2026-05-04 16:56 44.90493 3.90817 25927 ft 470 kts 63°
2026-05-04 16:57 44.92077 3.94858 25930 ft 470 kts 63°
2026-05-04 16:57 44.95237 4.02930 25965 ft 470 kts 64°
2026-05-04 16:58 44.99955 4.15043 25988 ft 469 kts 64°
2026-05-04 16:58 45.01477 4.19109 25987 ft 467 kts 68°
2026-05-04 16:59 45.03711 4.27679 25962 ft 465 kts 74°
2026-05-04 17:00 45.07949 4.44980 25991 ft 465 kts 74°
2026-05-04 17:00 45.11116 4.58013 24098 ft 474 kts 75°
2026-05-04 17:01 45.13230 4.66805 22503 ft 465 kts 74°
2026-05-04 17:01 45.15305 4.75358 21105 ft 455 kts 71°
2026-05-04 17:02 45.18790 4.82704 19794 ft 450 kts 44°
2026-05-04 17:02 45.24029 4.87203 18144 ft 434 kts 18°
2026-05-04 17:03 45.26879 4.88430 17275 ft 418 kts 16°
2026-05-04 17:03 45.29587 4.89547 16853 ft 395 kts 15°
2026-05-04 17:03 45.34848 4.91423 15799 ft 388 kts 12°
2026-05-04 17:04 45.40060 4.93142 14713 ft 386 kts 12°
2026-05-04 17:04 45.45324 4.94933 13548 ft 387 kts 13°
2026-05-04 17:05 45.50479 4.96743 12385 ft 382 kts 13°
2026-05-04 17:05 45.55649 4.98096 11192 ft 374 kts 359°
2026-05-04 17:06 45.60699 4.97512 10576 ft 350 kts 352°
2026-05-04 17:06 45.63075 4.97176 10456 ft 336 kts 352°
2026-05-04 17:07 45.67568 4.96552 10210 ft 313 kts 352°
2026-05-04 17:07 45.69014 4.96348 10090 ft 306 kts 352°
2026-05-04 17:07 45.71773 4.95957 9547 ft 296 kts 352°
2026-05-04 17:07 45.73814 4.95665 8844 ft 294 kts 352°
2026-05-04 17:08 45.75845 4.95373 8142 ft 292 kts 352°
2026-05-04 17:08 45.79875 4.94789 6759 ft 290 kts 352°
2026-05-04 17:08 45.81874 4.94501 6051 ft 289 kts 352°
2026-05-04 17:09 45.83876 4.94212 5305 ft 289 kts 353°
2026-05-04 17:09 45.85889 4.94143 4533 ft 291 kts
2026-05-04 17:09 45.87838 4.94783 4089 ft 280 kts 21°
2026-05-04 17:10 45.91087 4.97195 3981 ft 256 kts 49°
2026-05-04 17:10 45.92656 5.03935 3983 ft 237 kts 98°
2026-05-04 17:11 45.92178 5.06001 3970 ft 206 kts 137°
2026-05-04 17:11 45.91062 5.07011 3970 ft 183 kts 171°
2026-05-04 17:11 45.88599 5.07349 3764 ft 177 kts 177°
2026-05-04 17:12 45.87370 5.07494 3554 ft 177 kts 177°
2026-05-04 17:12 45.85060 5.07776 3113 ft 160 kts 176°
2026-05-04 17:13 45.81736 5.08181 2473 ft 161 kts 176°
2026-05-04 17:14 45.78963 5.08520 1929 ft 139 kts 175°
2026-05-04 17:14 45.78012 5.08636 1736 ft 136 kts 174°
2026-05-04 17:14 45.76112 5.08848 1323 ft 138 kts 176°
2026-05-04 17:15 45.75157 5.08963 1159 ft 139 kts 173°
2026-05-04 17:15 45.73249 5.09221 807 ft 133 kts 174°
2026-05-04 17:16 45.72170 5.09348 810 ft 23 kts 175°
2026-05-04 17:16 45.71695 5.09293 821 ft 24 kts 205°
2026-05-04 17:17 45.71641 5.09209 815 ft 7 kts 254°
2026-05-04 17:17 45.71631 5.09090 814 ft 8 kts 264°
2026-05-04 17:18 45.71624 5.08979 810 ft 11 kts 265°
2026-05-04 17:18 45.71615 5.08793 812 ft 9 kts 267°
2026-05-04 17:19 45.71600 5.08617 805 ft 0 kts 263°
2026-05-04 17:19 45.71606 5.08521 803 ft 13 kts 307°
2026-05-04 17:20 45.71682 5.08383 800 ft 10 kts 265°
2026-05-04 17:20 45.71681 5.08211 801 ft 13 kts 283°
2026-05-04 17:20 45.71692 5.08159 800 ft 2 kts 287°
2026-05-04 17:21 45.71754 5.08119 797 ft 6 kts
2026-05-04 17:21 45.71802 5.08124 797 ft 2 kts 328°
2026-05-04 17:22 45.71809 5.08112 797 ft 1 kts 300°
2026-05-04 17:22 45.71814 5.08099 796 ft 4 kts 299°
2026-05-04 17:23 45.71830 5.08054 797 ft 1 kts 297°
2026-05-04 17:23 45.71832 5.08048 797 ft 2 kts 297°
2026-05-04 17:23 45.71834 5.08043 797 ft 0 kts 297°